FW7807 Weather Reports


Display with metric or nautical units.
time (UTC)temp
F
wind
direction
speed
MPH
gust
MPH
rain 1hr
in
rain 24hr
in
rain mn
in
humidity
%
barometer
mb
20260507133043 66 187 3.0 11.0 0.00 0.00 0.00 78 1010.2
20260507131539 65 109 8.0 13.0 0.00 0.00 0.00 77 1010.1
20260507130042 66 121 10.0 19.0 0.00 0.00 0.00 75 1010.3
20260507124538 67 105 13.0 22.0 0.00 0.00 0.00 72 1010.6
20260507123042 67 98 11.0 20.0 0.00 0.00 0.00 71 1010.6
20260507121540 67 96 13.0 19.0 0.00 0.00 0.00 70 1010.7
20260507120040 67 101 14.0 20.0 0.00 0.00 0.00 70 1010.8
20260507114545 67 86 15.0 20.0 0.00 0.00 0.00 72 1010.7
20260507113039 67 92 17.0 25.0 0.00 0.00 0.00 71 1010.6
20260507111548 67 117 13.0 18.0 0.00 0.00 0.00 71 1011.0
20260507110036 67 110 14.0 22.0 0.00 0.00 0.00 72 1011.0
20260507104536 67 93 16.0 23.0 0.00 0.00 0.00 73 1011.2
20260507103041 66 89 16.0 25.0 0.00 0.00 0.00 73 1011.2
20260507101538 66 111 17.0 23.0 0.00 0.00 0.00 74 1011.1
20260507100037 66 107 14.0 23.0 0.00 0.00 0.00 74 1011.3
20260507094541 66 122 13.0 19.0 0.00 0.00 0.00 74 1011.2
20260507093043 66 105 14.0 21.0 0.00 0.00 0.00 73 1011.5
20260507091538 66 103 11.0 18.0 0.00 0.00 0.00 72 1011.3
20260507090039 66 107 12.0 19.0 0.00 0.00 0.00 71 1011.3
20260507084541 66 81 12.0 20.0 0.00 0.00 0.00 71 1011.3
20260507083039 66 101 12.0 18.0 0.00 0.00 0.00 72 1011.4
20260507081538 66 74 12.0 17.0 0.00 0.00 0.00 73 1011.3
20260507080049 66 360 10.0 15.0 0.00 0.00 0.00 72 1011.4
20260507074540 65 75 10.0 14.0 0.00 0.00 0.00 72 1011.2
20260507073036 65 107 6.0 12.0 0.00 0.00 0.00 72 1011.2
20260507071536 65 96 5.0 11.0 0.00 0.00 0.00 72 1010.9
20260507070048 64 41 6.0 10.0 0.00 0.00 0.00 74 1010.7
20260507064546 63 64 6.0 10.0 0.00 0.00 0.00 76 1010.6
20260507063038 61 36 3.0 6.0 0.00 0.00 0.00 79 1010.7
20260507061538 59 58 1.0 4.0 0.00 0.00 0.00 81 1010.6
20260507060037 59 32 1.0 3.0 0.00 0.00 0.00 80 1010.7
20260507054540 58 0 0.0 4.0 0.00 0.00 0.00 81 1010.7
20260507053041 58 13 1.0 4.0 0.00 0.00 0.00 81 1010.7
20260507051541 58 5 1.0 4.0 0.00 0.00 0.00 80 1010.5
20260507050041 58 352 0.0 5.0 0.00 0.00 0.00 80 1010.4
20260507044538 58 0 0.0 2.0 0.00 0.00 0.00 80 1010.4
20260507043035 58 38 2.0 5.0 0.00 0.00 0.00 80 1010.3
20260507041552 59 21 2.0 5.0 0.00 0.00 0.00 79 1010.2
20260507040041 59 13 3.0 6.0 0.00 0.00 0.00 79 1010.2
20260507034538 59 28 2.0 5.0 0.00 0.00 0.00 78 1010.2
20260507033042 59 36 2.0 5.0 0.00 0.00 0.00 78 1010.0
20260507031536 60 74 2.0 4.0 0.00 0.00 0.00 78 1010.2
20260507030037 60 70 0.0 5.0 0.00 0.00 0.00 79 1010.3
20260507024542 60 51 3.0 5.0 0.00 0.00 0.00 79 1010.3
20260507023041 60 49 3.0 4.0 0.00 0.00 0.00 79 1010.3
20260507021539 61 44 1.0 3.0 0.00 0.00 0.00 79 1010.7
20260507020039 61 41 2.0 4.0 0.00 0.00 0.00 79 1010.7
20260507014550 61 44 3.0 5.0 0.00 0.00 0.00 79 1010.8
20260507013044 60 30 3.0 5.0 0.00 0.00 0.00 80 1010.8
20260507011539 60 65 2.0 6.0 0.00 0.00 0.00 80 1010.7
20260507010042 61 42 5.0 7.0 0.00 0.00 0.00 80 1010.7
20260507004540 61 58 5.0 7.0 0.00 0.00 0.00 80 1010.7
20260507003039 61 44 4.0 9.0 0.00 0.00 0.00 81 1010.9
20260507001555 61 34 5.0 10.0 0.00 0.00 0.00 81 1010.9
20260507000041 61 32 4.0 8.0 0.00 0.00 0.00 81 1011.1
20260506234541 61 57 6.0 9.0 0.00 0.00 0.00 82 1011.2
20260506233044 62 36 4.0 6.0 0.00 0.00 0.00 82 1011.3
20260506231544 62 38 4.0 6.0 0.00 0.00 0.00 81 1011.2
20260506230037 62 46 3.0 5.0 0.00 0.00 0.00 82 1011.4
20260506224535 62 44 3.0 6.0 0.00 0.00 0.00 82 1011.3
20260506223058 62 45 4.0 6.0 0.00 0.00 0.00 81 1011.4
20260506221539 63 40 2.0 4.0 0.00 0.00 0.00 81 1011.3
20260506220038 63 84 3.0 6.0 0.00 0.00 0.00 81 1011.4
20260506214540 63 88 4.0 6.0 0.00 0.00 0.00 81 1011.5
20260506213038 64 100 3.0 4.0 0.00 0.00 0.00 81 1011.6
20260506211545 64 96 3.0 6.0 0.00 0.00 0.00 81 1011.8
20260506210042 64 89 3.0 7.0 0.00 0.00 0.00 81 1011.7
20260506204538 64 105 5.0 7.0 0.00 0.00 0.00 81 1011.5
20260506203043 64 98 4.0 9.0 0.00 0.00 0.00 81 1011.5
20260506201537 64 88 5.0 9.0 0.00 0.00 0.00 80 1011.2
20260506200108 64 90 5.0 9.0 0.00 0.00 0.00 80 1011.2
20260506194542 64 96 5.0 11.0 0.00 0.00 0.00 80 1011.0
20260506193040 64 107 6.0 10.0 0.00 0.00 0.00 80 1010.9
20260506191538 64 105 8.0 11.0 0.00 0.00 0.00 79 1010.8
20260506190038 65 132 6.0 13.0 0.00 0.00 0.00 79 1010.4
20260506184535 65 105 8.0 12.0 0.00 0.00 0.00 78 1010.4
20260506183041 65 101 10.0 13.0 0.00 0.00 0.00 78 1010.3
20260506181542 65 109 6.0 17.0 0.00 0.00 0.00 77 1010.1
20260506180048 65 119 12.0 17.0 0.00 0.00 0.00 77 1010.1
20260506174538 66 124 8.0 16.0 0.00 0.00 0.00 76 1010.2
20260506173037 66 104 13.0 18.0 0.00 0.00 0.00 75 1010.3
20260506171547 66 173 10.0 17.0 0.00 0.00 0.00 74 1010.2
20260506170042 66 110 12.0 21.0 0.00 0.00 0.00 73 1010.1
20260506164539 67 108 12.0 21.0 0.00 0.00 0.00 73 1009.8
20260506163046 67 109 14.0 20.0 0.00 0.00 0.00 73 1009.7
20260506161549 67 106 13.0 21.0 0.00 0.00 0.00 72 1009.8
20260506160037 67 144 13.0 25.0 0.00 0.00 0.00 71 1009.9
20260506154537 67 111 15.0 24.0 0.00 0.00 0.00 70 1009.8
20260506153043 68 115 17.0 24.0 0.00 0.00 0.00 71 1009.8
20260506151540 68 130 14.0 24.0 0.00 0.00 0.00 71 1009.8
20260506150038 68 135 15.0 23.0 0.00 0.00 0.00 70 1009.8
20260506144538 68 107 17.0 26.0 0.00 0.00 0.00 69 1010.1
20260506143042 68 104 16.0 26.0 0.00 0.00 0.00 70 1010.2
20260506141539 68 109 17.0 24.0 0.00 0.00 0.00 70 1010.2
20260506140045 68 119 19.0 27.0 0.00 0.00 0.00 71 1010.5
20260506134608 68 98 17.0 27.0 0.00 0.00 0.00 71 1010.3